Wind_Speed
38 39 39 40 41 41 41 42 42 43 45 45 44 44 44 44 43 42 43 43 43 43 43 43 43 42 42 42 41 41 40 40 41 40 40 39 39 38 38 38 38 38 38
38 38 40 40 41 41 42 42 43 44 45 45 45 45 45 45 44 44 44 44 45 45 45 45 44 44 44 43 42 42 41 41 42 42 42 41 41 40 40 40 40 39 39
38 38 39 40 40 40 41 41 41 43 44 44 45 46 46 47 46 45 45 45 46 46 46 46 45 45 45 45 44 44 43 42 43 43 43 43 42 42 42 42 42 41 41
37 38 39 40 40 40 40 40 41 42 42 44 45 45 46 47 47 46 46 47 47 47 47 47 46 46 46 46 46 45 45 44 44 44 44 44 44 44 43 44 44 43 43
37 38 40 40 41 41 41 41 41 41 41 42 44 45 46 47 48 48 48 48 48 48 48 48 47 47 47 47 47 46 46 46 46 46 46 45 45 45 45 45 44 44 44
37 38 39 40 40 41 42 42 41 41 42 43 43 44 45 47 48 49 50 49 49 49 50 49 49 48 48 48 49 48 48 47 47 48 47 47 46 45 45 45 45 44 44
37 38 39 40 40 41 42 42 42 42 42 43 44 44 46 48 48 49 50 51 50 51 51 51 50 49 49 49 50 50 49 49 49 49 49 49 48 48 47 47 46 46 46
37 38 39 40 41 41 42 43 44 43 44 45 45 46 46 47 48 49 49 50 50 50 50 51 52 51 51 51 51 51 51 51 50 50 50 50 49 49 49 48 48 47 47
38 38 39 40 41 42 42 42 44 45 45 46 46 46 46 47 48 49 49 50 50 51 51 52 52 52 52 52 52 52 52 51 51 51 51 51 51 51 51 50 49 49 49
38 39 39 39 41 41 41 42 44 44 45 45 46 47 48 49 49 50 49 50 51 51 52 52 53 54 54 54 54 53 52 52 52 52 52 51 51 52 52 51 51 51 50
39 40 40 41 41 41 42 43 43 43 44 45 46 47 48 50 51 51 51 51 52 53 52 53 53 54 55 55 55 55 54 54 53 53 53 52 52 53 53 52 52 52 52
39 40 41 41 41 42 42 42 43 43 43 45 46 47 48 49 50 51 51 52 53 53 53 54 54 54 55 55 56 55 55 55 54 53 53 53 53 53 52 53 53 52 52
40 40 40 40 41 42 43 43 44 45 45 45 45 46 47 48 49 50 51 52 53 53 53 54 54 54 55 55 55 55 55 55 54 53 52 51 52 52 52 52 52 52 52
41 41 40 40 41 42 42 44 45 46 47 47 46 46 47 48 50 50 51 52 53 53 53 53 53 53 53 53 54 54 54 53 53 52 51 51 51 52 51 51 50 50 51
40 41 41 42 42 43 44 44 45 46 47 48 47 47 47 48 49 50 51 52 53 53 52 51 50 51 52 52 52 52 52 51 52 52 51 51 51 51 50 50 50 50 51
40 40 41 41 42 42 43 44 44 45 47 48 48 48 49 49 49 50 50 50 51 52 52 51 50 50 50 50 50 52 52 51 51 50 49 49 50 50 49 49 49 49 51
41 41 41 41 42 42 42 43 43 44 45 47 48 48 49 50 50 49 49 48 49 51 52 51 50 49 49 49 48 49 50 50 49 48 48 49 49 49 49 50 50 50 50
43 43 43 43 42 43 43 43 43 44 45 46 48 49 49 50 49 48 47 47 48 49 50 50 49 48 47 47 47 47 48 49 48 47 47 48 48 49 49 50 49 49 49
42 42 43 43 42 42 43 43 43 44 45 45 46 47 48 47 47 47 47 47 47 47 48 48 47 47 46 46 46 46 48 48 48 47 47 47 47 47 48 48 48 47 48
41 41 42 42 42 42 42 43 44 44 43 43 44 45 45 43 43 44 45 46 46 45 45 46 46 46 46 45 46 46 46 46 46 47 47 46 45 46 47 47 46 45 45
41 42 43 43 42 42 42 42 42 43 42 41 42 42 42 42 41 41 42 42 42 43 43 44 43 44 44 44 44 44 45 45 45 45 45 45 45 45 45 45 44 44 45
42 43 43 43 42 41 41 41 41 40 40 40 40 41 41 40 40 40 40 40 40 41 41 42 43 42 42 43 42 43 44 44 44 43 43 43 43 43 43 43 43 43 44
42 42 42 40 40 39 40 39 39 39 39 39 38 38 39 40 39 38 38 38 38 38 39 39 40 40 40 41 42 42 43 43 43 42 40 41 41 41 41 41 42 42 41
40 40 39 38 38 38 38 38 37 37 37 36 36 36 36 37 38 37 37 36 36 37 38 38 39 39 39 39 40 40 41 41 41 41 40 39 40 40 40 41 41 41 40
39 39 38 37 37 37 37 35 35 35 35 34 33 33 34 34 34 35 35 34 35 36 36 37 38 38 38 39 39 39 38 38 39 38 38 39 39 38 39 40 41 41 42
38 38 37 36 36 35 34 34 33 33 33 33 33 32 32 33 33 33 33 33 34 35 35 36 37 38 38 38 38 38 38 38 37 37 37 37 38 38 39 39 39 40 41
Wind_Direction
258 258 258 258 258 258 258 258 257 257 256 256 255 255 254 253 253 253 253 253 253 253 255 255 256 257 259 260 262 264 264 264 266 267 268 269 271 272 272 273 274 275 277
259 259 259 259 259 260 260 259 259 258 257 256 255 254 253 252 251 252 253 253 253 254 255 255 256 257 258 259 260 263 264 264 266 268 268 269 270 271 271 272 273 274 276
260 259 260 260 260 261 261 262 261 260 258 256 254 252 252 251 250 251 253 253 253 253 255 255 256 257 257 259 259 262 263 265 266 268 269 270 270 270 271 272 273 273 274
261 261 261 261 261 261 261 263 263 261 259 257 254 252 251 251 251 251 252 252 253 253 254 254 255 256 257 258 260 261 262 265 266 268 269 270 270 271 273 272 273 273 273
263 263 263 263 262 263 264 264 264 262 260 258 255 252 252 252 252 252 253 253 253 254 254 254 256 257 257 258 259 260 262 264 266 267 268 268 269 271 272 273 273 273 274
265 264 264 264 263 264 265 265 263 262 260 258 256 254 254 254 254 254 255 254 254 254 254 254 256 258 258 258 259 259 261 263 265 266 267 268 269 270 271 272 273 273 273
267 266 266 265 265 265 265 264 263 263 262 261 258 256 255 255 254 255 255 255 254 254 255 255 256 257 258 258 259 259 261 262 264 265 266 267 268 268 270 271 271 272 273
269 267 268 267 266 266 265 265 264 265 264 262 260 256 256 256 255 255 255 255 254 254 254 255 255 256 257 258 258 259 261 262 263 264 265 266 266 267 269 271 271 272 272
272 270 269 269 267 265 265 265 265 265 264 263 260 257 256 257 255 254 255 255 254 254 254 255 256 256 257 257 259 260 261 262 263 264 264 264 265 267 268 270 271 271 272
274 273 273 272 268 267 267 266 266 264 263 262 261 259 257 256 255 254 255 256 254 254 255 256 257 257 257 257 259 260 261 262 263 264 264 264 264 265 267 268 270 270 272
275 274 274 272 269 269 267 266 265 264 264 262 261 260 259 259 257 255 255 255 255 255 256 257 258 258 258 258 259 260 261 262 263 263 263 263 264 264 266 267 268 269 270
276 276 276 274 272 270 268 267 265 264 265 264 263 261 261 260 258 257 256 256 255 256 257 257 258 259 259 260 260 261 262 262 263 263 263 264 264 265 266 267 268 268 269
278 277 277 276 274 272 269 268 266 265 265 264 263 263 262 260 260 260 260 258 256 256 257 258 259 260 261 261 261 261 261 261 262 263 264 264 265 266 266 267 267 267 268
278 279 278 277 275 273 270 268 267 267 266 264 263 263 263 262 262 262 262 260 258 257 258 260 260 260 261 261 261 261 261 262 262 263 263 263 264 265 265 266 266 267 268
278 278 278 277 276 275 272 270 268 267 266 264 263 263 263 263 263 263 262 261 260 259 259 260 260 260 261 261 262 262 261 262 262 262 262 262 263 264 265 265 266 267 267
279 279 279 278 277 276 274 272 270 269 267 266 265 264 264 264 265 263 262 261 260 259 259 260 261 261 261 261 262 262 261 262 263 262 262 262 262 263 264 265 265 266 268
280 279 279 279 278 276 275 273 271 270 269 267 266 265 265 265 265 264 262 262 260 259 260 260 261 261 260 260 261 261 261 261 262 262 262 262 262 263 263 264 264 265 267
279 280 280 280 280 278 277 275 273 272 271 269 267 266 266 265 265 265 262 261 261 260 259 259 260 260 259 260 260 261 260 260 262 262 263 263 264 263 264 264 264 265 266
279 280 281 281 281 279 278 277 276 275 273 271 269 267 267 266 265 264 263 262 262 261 260 258 258 259 259 259 260 261 260 260 262 262 262 263 264 264 263 264 264 265 267
281 280 281 281 281 279 278 277 277 275 274 272 271 268 267 266 264 264 262 262 262 262 261 260 259 258 259 260 261 262 262 262 262 262 263 263 263 262 262 264 265 266 266
281 281 281 281 281 279 278 278 278 276 274 272 271 269 267 265 265 266 265 263 263 262 261 261 261 261 260 260 262 264 264 264 263 262 262 261 261 261 261 262 264 266 267
283 283 282 282 281 279 278 278 278 277 274 273 272 270 268 267 266 266 266 264 263 263 262 262 262 262 261 260 262 264 264 264 264 263 262 261 261 261 261 263 264 266 268
286 286 285 283 281 280 279 278 278 278 276 274 272 269 267 266 265 265 265 264 263 263 262 262 262 262 262 262 263 263 263 263 263 262 262 263 263 263 263 264 264 265 267
285 285 285 283 282 281 280 279 278 277 277 275 272 269 268 265 263 263 263 264 263 263 263 262 261 262 262 262 263 263 261 262 262 261 262 263 264 263 263 263 263 265 268
283 284 283 283 283 282 280 279 278 277 276 275 273 270 267 265 264 263 263 264 264 264 264 264 263 264 264 264 263 263 261 262 263 263 262 262 263 263 262 262 264 267 269
282 282 282 283 283 283 281 279 278 277 276 274 273 271 269 266 265 264 264 264 266 266 266 266 266 265 265 265 264 263 262 262 263 263 263 263 262 262 263 265 267 269 270
Height
5725 5726 5726 5727 5728 5729 5731 5732 5734 5735 5736 5738 5739 5741 5742 5744 5746 5747 5749 5750 5752 5754 5756 5758 5759 5760 5761 5762 5763 5763 5763 5763 5763 5763 5763 5763 5763 5762 5761 5760 5759 5758 5757
5715 5715 5716 5716 5717 5718 5719 5721 5722 5723 5724 5725 5727 5729 5731 5733 5735 5737 5739 5740 5742 5744 5745 5747 5748 5750 5751 5752 5752 5753 5753 5753 5753 5753 5753 5753 5754 5753 5752 5751 5750 5749 5748
5705 5705 5705 5706 5707 5708 5709 5709 5710 5711 5712 5712 5714 5716 5719 5721 5723 5726 5728 5729 5731 5732 5734 5736 5737 5738 5740 5741 5742 5742 5743 5743 5743 5743 5743 5743 5743 5743 5742 5741 5740 5739 5738
5695 5696 5696 5696 5697 5697 5697 5698 5698 5699 5700 5700 5701 5703 5706 5709 5712 5714 5716 5718 5719 5721 5723 5724 5726 5727 5729 5730 5731 5731 5732 5732 5732 5732 5732 5732 5732 5731 5731 5731 5730 5728 5727
5686 5686 5686 5686 5687 5687 5686 5687 5687 5687 5688 5688 5689 5691 5694 5697 5700 5702 5704 5706 5708 5710 5711 5713 5714 5716 5717 5718 5719 5719 5720 5720 5721 5721 5721 5720 5720 5720 5719 5719 5719 5717 5717
5676 5675 5675 5675 5675 5675 5675 5675 5675 5676 5676 5676 5677 5679 5682 5685 5687 5689 5691 5693 5695 5697 5699 5701 5702 5703 5705 5706 5706 5707 5708 5708 5709 5709 5709 5709 5709 5709 5708 5707 5707 5706 5705
5665 5665 5664 5664 5664 5664 5664 5664 5664 5665 5665 5665 5666 5668 5669 5671 5673 5676 5678 5680 5682 5684 5686 5688 5689 5691 5692 5693 5693 5694 5695 5696 5696 5697 5697 5697 5697 5696 5696 5695 5694 5694 5693
5654 5654 5653 5653 5653 5653 5653 5653 5653 5653 5653 5653 5654 5655 5656 5658 5660 5662 5664 5666 5669 5671 5672 5674 5676 5677 5678 5679 5680 5681 5682 5683 5683 5684 5684 5684 5684 5684 5683 5683 5682 5681 5681
5644 5643 5642 5641 5641 5641 5641 5641 5641 5641 5641 5640 5641 5642 5642 5644 5646 5648 5649 5652 5654 5657 5659 5660 5661 5663 5664 5665 5666 5667 5668 5669 5670 5670 5670 5670 5671 5670 5670 5669 5669 5668 5668
5633 5632 5632 5631 5630 5630 5629 5629 5628 5628 5628 5628 5628 5629 5629 5631 5632 5634 5636 5638 5641 5642 5644 5646 5647 5648 5650 5651 5652 5653 5654 5655 5656 5656 5656 5657 5657 5657 5656 5656 5655 5654 5654
5622 5621 5621 5619 5618 5618 5617 5617 5616 5616 5616 5616 5616 5616 5617 5618 5619 5620 5622 5624 5626 5628 5629 5631 5632 5634 5635 5636 5637 5638 5639 5640 5641 5642 5642 5643 5643 5642 5642 5642 5642 5641 5641
5611 5610 5609 5608 5607 5606 5605 5604 5604 5604 5603 5603 5603 5603 5604 5604 5606 5607 5608 5610 5611 5613 5615 5616 5617 5618 5620 5621 5622 5623 5624 5625 5626 5627 5627 5628 5628 5628 5628 5628 5628 5627 5627
5600 5598 5597 5596 5594 5594 5593 5592 5591 5591 5591 5590 5590 5590 5591 5591 5592 5593 5594 5595 5597 5598 5599 5600 5601 5603 5604 5605 5606 5607 5608 5609 5610 5611 5611 5612 5612 5613 5613 5613 5613 5613 5613
5589 5587 5586 5584 5583 5581 5580 5579 5578 5578 5577 5577 5577 5577 5577 5578 5579 5579 5580 5581 5582 5583 5584 5585 5586 5587 5588 5589 5590 5591 5592 5593 5594 5595 5596 5597 5598 5599 5599 5599 5599 5599 5599
5578 5576 5574 5572 5570 5568 5567 5566 5565 5564 5564 5563 5564 5564 5564 5564 5564 5564 5565 5566 5567 5568 5569 5570 5571 5572 5573 5574 5575 5576 5577 5577 5579 5580 5581 5582 5583 5583 5584 5585 5586 5585 5585
5566 5564 5562 5560 5557 5555 5554 5553 5552 5551 5550 5550 5549 5549 5550 5550 5550 5550 5550 5551 5552 5553 5554 5556 5557 5558 5559 5560 5561 5561 5562 5563 5564 5565 5566 5568 5569 5569 5570 5571 5571 5571 5572
5554 5552 5550 5547 5545 5542 5540 5539 5538 5537 5537 5536 5535 5535 5535 5535 5535 5535 5535 5536 5537 5538 5540 5541 5542 5544 5545 5546 5547 5547 5548 5549 5550 5551 5552 5553 5554 5555 5556 5557 5557 5557 5558
5541 5539 5537 5534 5532 5530 5528 5526 5525 5523 5522 5521 5521 5520 5520 5520 5520 5520 5521 5522 5523 5524 5526 5527 5528 5529 5531 5532 5533 5533 5534 5535 5537 5537 5538 5539 5540 5541 5542 5543 5543 5544 5545
5528 5526 5524 5522 5520 5517 5515 5513 5512 5511 5509 5508 5507 5506 5506 5506 5506 5507 5507 5508 5509 5510 5511 5513 5514 5516 5517 5518 5519 5520 5521 5522 5523 5524 5525 5525 5526 5528 5528 5529 5530 5532 5533
5516 5514 5512 5509 5507 5505 5503 5501 5499 5498 5497 5495 5494 5493 5493 5493 5493 5494 5494 5495 5496 5497 5498 5499 5501 5503 5504 5505 5506 5507 5508 5509 5511 5511 5512 5513 5513 5514 5515 5516 5518 5519 5519
5505 5502 5500 5497 5495 5493 5491 5489 5487 5485 5484 5483 5482 5481 5481 5481 5481 5482 5482 5482 5483 5485 5486 5487 5489 5490 5491 5492 5493 5494 5495 5496 5497 5498 5499 5500 5500 5501 5502 5503 5505 5506 5506
5493 5490 5487 5485 5483 5480 5478 5477 5475 5473 5472 5471 5470 5470 5470 5469 5470 5470 5470 5471 5471 5473 5474 5475 5476 5477 5478 5480 5481 5482 5482 5483 5484 5485 5486 5487 5488 5489 5490 5491 5492 5493 5493
5481 5478 5475 5473 5471 5468 5466 5465 5464 5462 5460 5459 5459 5459 5459 5459 5459 5459 5459 5460 5461 5461 5462 5463 5465 5466 5467 5468 5469 5469 5470 5471 5472 5473 5474 5475 5476 5477 5478 5480 5481 5481 5481
5469 5466 5464 5462 5460 5457 5455 5453 5452 5450 5449 5448 5448 5448 5448 5448 5448 5448 5449 5449 5450 5451 5451 5452 5454 5455 5456 5456 5457 5457 5458 5459 5460 5461 5462 5463 5464 5466 5467 5468 5469 5469 5470
5457 5455 5453 5451 5449 5447 5445 5443 5441 5440 5439 5438 5438 5437 5437 5437 5437 5438 5438 5439 5440 5440 5441 5441 5442 5443 5444 5445 5445 5446 5447 5448 5448 5449 5450 5452 5454 5455 5456 5457 5458 5458 5458
5445 5443 5441 5440 5438 5436 5434 5433 5431 5430 5429 5428 5428 5428 5427 5427 5427 5428 5428 5428 5429 5430 5430 5430 5431 5431 5432 5433 5434 5434 5435 5436 5437 5438 5440 5441 5443 5444 5446 5446 5446 5446 5447